Wind_Speed
26 30 28 31 33 30 31 31 35 31 29 29 27 25 26 28 27 27 27 26 27 29 30 33 36 34 32 28 23 23 30 34 37 37 30 35 37 33 27 27 27 28 24 23 22 23 28 33 38
23 24 20 26 33 31 30 29 30 31 28 23 24 24 24 23 23 22 24 25 26 28 30 31 31 30 22 17 19 28 32 35 37 34 31 30 33 30 31 30 31 30 29 31 31 23 17 18 22
25 20 21 22 23 27 27 28 23 24 22 21 21 21 22 21 21 21 22 24 26 26 26 27 25 21 17 18 21 28 33 37 35 30 26 26 27 25 23 22 22 25 30 31 32 33 28 19 15
25 20 21 22 25 21 24 22 19 18 18 18 19 21 22 22 20 21 20 21 22 21 21 22 19 18 17 20 24 29 33 35 32 29 21 24 23 14 18 19 22 28 28 25 25 28 33 36 22
27 24 21 21 24 25 25 24 19 19 15 16 17 17 17 17 17 17 18 19 17 18 17 18 17 17 18 21 27 28 34 30 33 28 20 22 25 18 17 23 26 26 26 27 26 26 28 32 32
29 26 20 18 12 21 27 25 19 16 12 14 14 13 12 12 13 15 16 16 17 16 16 16 17 19 22 25 26 27 26 34 31 29 24 20 25 24 21 19 27 29 27 20 26 23 27 28 28
28 26 22 15 15 15 16 19 14 13 13 14 15 14 12 9 10 12 14 16 14 15 15 17 18 22 26 24 25 23 26 29 31 30 24 20 23 20 21 23 29 30 25 19 20 26 23 20 23
27 25 26 24 10 24 25 18 15 15 15 17 20 16 12 8 9 10 11 8 12 14 14 15 23 27 25 24 20 20 23 28 36 34 25 22 23 14 23 27 27 21 22 19 17 22 26 27 28
20 23 26 30 34 25 22 19 18 18 18 14 15 11 10 9 9 8 10 14 17 20 22 25 26 28 26 21 17 20 25 29 34 42 24 20 14 12 21 24 19 22 18 16 18 19 23 24 32
15 17 21 30 30 22 21 19 17 19 17 15 15 11 9 8 7 10 12 16 18 20 21 24 25 25 23 20 17 21 27 32 34 38 28 22 16 16 20 21 16 23 19 15 14 19 25 32 40
12 14 16 21 22 25 20 17 18 20 18 18 17 12 10 12 10 12 13 18 20 18 22 25 23 24 21 20 17 21 26 30 34 31 32 19 21 19 19 19 12 19 27 22 22 21 28 29 36
13 13 13 15 13 14 17 21 21 22 20 20 18 15 14 17 18 21 22 22 22 22 24 26 23 24 21 19 17 20 25 27 31 31 30 27 23 20 22 11 12 15 18 26 27 26 29 24 36
15 14 15 16 16 13 16 13 16 20 19 17 15 15 15 14 18 21 20 22 23 23 26 25 24 23 22 19 15 19 25 28 27 30 30 27 23 26 18 15 11 18 20 19 21 23 23 22 30
19 15 15 16 17 16 15 15 16 15 15 14 17 18 19 20 22 22 23 22 22 22 24 23 24 21 23 20 18 21 24 29 28 28 28 22 20 19 20 21 18 21 19 23 24 31 25 21 24
23 21 19 18 18 17 18 18 16 16 17 17 16 23 24 26 26 26 25 25 24 22 24 23 25 19 21 22 21 20 20 23 28 31 32 29 26 24 19 20 23 21 20 24 25 27 28 27 26
28 27 25 24 23 22 22 20 15 19 23 21 23 25 27 30 29 27 24 25 25 23 26 27 23 19 21 23 25 22 24 27 28 28 31 33 33 26 31 30 29 30 29 22 24 26 29 27 28
30 28 28 26 26 25 28 24 19 20 23 24 24 27 24 22 25 27 24 21 24 25 26 25 24 24 24 25 27 26 29 31 30 29 30 34 30 32 35 37 35 33 33 28 27 26 29 29 30
36 32 29 30 30 29 26 25 23 23 24 22 32 33 28 27 25 22 23 25 26 26 27 26 26 24 27 26 29 30 31 28 31 32 32 35 30 37 31 41 39 35 32 32 33 31 30 28 29
37 36 36 33 37 37 34 32 26 24 25 16 16 32 29 31 23 23 25 27 28 30 27 28 29 28 29 28 28 31 30 29 32 32 34 39 38 38 44 42 28 29 34 35 33 40 40 30 26
40 37 36 42 43 40 38 37 33 30 29 34 39 32 36 37 31 28 27 28 30 31 31 29 30 32 33 30 32 35 34 37 37 36 34 36 41 39 42 23 33 30 39 40 38 40 39 38 30
46 46 44 45 43 42 38 39 39 37 37 38 43 42 37 35 34 37 34 33 35 34 35 35 31 34 37 38 39 38 37 40 40 40 37 36 41 42 36 40 38 39 44 47 45 45 38 41 44
44 47 47 46 46 42 40 38 42 45 43 40 41 37 36 35 37 40 40 36 35 37 37 37 37 36 38 40 37 36 38 39 43 43 42 43 45 42 44 44 41 40 46 49 47 44 42 45 38
49 49 47 45 45 44 44 43 45 47 45 49 47 45 42 42 39 35 41 44 39 35 36 37 38 37 37 39 41 38 36 37 39 42 46 45 38 29 34 35 39 39 53 43 46 50 49 42 42
49 47 45 44 48 43 46 45 43 49 47 46 46 43 41 41 40 36 37 42 43 41 38 36 35 34 34 33 36 38 38 35 38 42 42 40 34 22 36 39 45 49 53 43 40 46 54 60 56
50 46 49 44 47 47 51 44 45 50 47 45 43 44 43 41 40 38 32 31 37 40 39 42 41 38 37 43 44 44 45 37 38 41 44 43 44 47 49 47 48 48 45 47 47 44 50 59 58
52 49 47 47 48 49 54 48 52 50 51 53 48 43 42 41 42 41 43 41 34 41 41 46 47 48 49 47 51 47 32 40 45 42 30 36 46 45 46 43 40 39 47 40 35 41 49 56 62
57 55 55 51 52 51 57 57 60 53 54 54 51 45 43 40 43 45 48 52 53 47 46 43 44 51 53 56 57 47 45 39 47 39 38 44 44 51 57 56 49 49 41 30 37 45 54 65 75
60 60 58 54 50 50 57 63 61 58 56 51 54 43 45 42 42 46 48 52 57 54 51 52 50 52 51 53 56 60 61 51 51 48 41 46 51 57 55 56 54 47 44 41 49 57 72 80 87
64 63 61 61 57 51 52 61 59 54 56 55 53 45 44 44 43 49 50 53 68 59 52 51 44 47 49 46 48 52 55 58 56 57 62 63 62 60 64 63 54 54 60 65 72 80 86 96 99
64 66 63 61 61 58 58 65 56 61 59 56 52 51 50 47 45 48 46 26 62 62 54 43 42 46 47 42 39 35 48 55 53 56 57 60 65 66 67 66 63 59 67 75 78 85 93 95 96
Wind_Direction
212 219 225 231 239 246 253 261 271 270 275 282 284 289 289 289 288 286 287 285 289 290 297 297 299 303 308 315 322 324 327 329 330 329 323 318 321 334 333 339 346 351 351 351 332 313 290 273 264
206 214 216 234 238 245 252 259 266 270 270 275 281 283 286 289 288 287 282 288 291 294 297 299 303 307 319 324 333 340 342 339 335 331 333 339 343 349 358 4 12 13 20 16 8 358 337 304 280
207 210 213 217 235 247 253 258 260 260 262 264 272 280 281 282 283 280 285 290 295 295 300 302 304 317 323 337 337 346 346 341 337 341 354 359 350 359 11 23 21 7 357 359 7 23 24 0 313
211 217 227 226 234 238 248 248 249 249 251 263 273 275 276 273 278 287 292 293 295 299 301 307 318 324 328 333 339 342 340 337 338 341 357 2 4 10 20 359 356 355 4 2 2 4 14 23 22
215 212 214 226 243 239 245 246 247 252 262 266 273 273 271 279 285 288 290 293 301 312 312 314 321 328 328 332 334 337 339 346 348 343 344 349 357 357 341 348 7 9 13 21 13 4 12 24 31
216 217 218 240 266 254 245 247 250 257 256 256 250 258 265 275 284 291 293 304 307 305 321 330 329 328 325 323 328 335 349 349 351 348 340 338 347 355 5 3 2 7 9 29 23 27 42 43 38
214 214 205 205 276 239 241 238 245 240 240 244 245 244 245 267 285 291 301 308 307 308 314 323 332 328 332 328 333 345 356 4 356 350 340 331 337 351 0 1 6 9 11 22 37 41 33 27 24
210 212 206 179 201 214 253 262 238 232 228 240 245 247 252 257 270 292 307 311 335 337 327 326 326 329 335 334 338 351 354 354 2 355 343 327 324 349 346 358 10 23 23 27 53 37 37 28 23
211 210 206 214 211 257 252 243 240 223 224 228 251 272 272 265 278 278 291 299 309 312 310 313 321 325 335 336 330 339 346 345 350 352 350 335 342 340 347 5 21 36 35 39 45 44 34 37 36
216 212 217 211 225 241 250 242 233 240 240 237 247 251 267 236 273 287 295 303 307 306 306 313 320 327 336 339 325 324 342 347 350 360 4 3 2 349 347 359 35 43 46 46 34 40 46 54 38
207 218 220 229 231 238 238 234 235 240 241 246 247 248 256 238 272 317 309 310 310 312 310 319 323 329 338 339 328 333 347 343 348 358 5 7 7 356 351 2 40 40 47 50 52 51 56 48 32
217 225 230 233 234 233 239 229 230 240 246 250 243 241 260 247 262 302 302 304 297 301 310 320 320 329 335 338 331 339 353 350 348 349 360 0 351 349 348 26 354 8 15 44 47 40 43 46 32
226 240 235 241 245 238 239 232 228 233 245 250 252 257 267 272 281 299 302 310 299 294 304 313 314 324 327 330 335 334 338 347 344 345 348 354 355 6 357 333 315 324 330 355 12 21 32 35 18
224 231 251 247 244 245 242 237 232 237 243 255 262 264 271 276 286 293 293 298 301 300 301 308 309 320 320 330 322 319 329 341 343 341 342 341 343 339 346 348 323 319 314 317 321 323 334 347 354
229 227 234 247 249 248 249 245 241 266 257 257 269 270 267 280 286 289 290 292 300 303 309 311 308 313 320 323 328 332 333 334 338 342 340 337 331 326 317 317 323 317 307 313 321 332 331 328 333
233 229 227 234 246 250 253 256 250 255 268 267 286 288 284 280 280 280 285 287 296 303 302 304 303 307 317 319 316 326 331 339 342 344 338 332 335 330 331 325 313 311 316 313 303 314 325 337 325
227 234 237 239 239 247 250 254 250 250 256 267 262 278 287 294 290 276 280 287 294 301 301 298 299 304 310 311 316 317 318 327 332 334 333 334 332 330 316 317 318 312 305 306 303 307 313 319 319
226 234 242 247 247 249 246 250 255 253 266 269 279 283 282 284 301 286 281 288 300 300 297 291 296 302 307 313 309 309 312 319 321 325 328 328 320 332 332 321 308 307 302 301 304 304 305 314 316
242 238 245 246 253 255 258 256 256 254 260 243 256 279 276 282 289 292 290 297 296 298 298 289 296 300 303 301 305 305 306 309 314 321 317 328 327 329 324 329 331 310 309 308 305 306 310 306 312
244 246 249 252 252 255 258 259 257 253 246 223 242 264 281 283 284 286 290 294 293 294 296 291 290 298 301 304 306 300 299 306 312 317 319 317 319 313 329 326 322 316 324 315 302 299 303 297 297
247 253 253 250 250 257 259 264 266 261 259 249 241 254 268 276 283 287 287 291 292 293 292 290 288 292 296 297 299 299 301 305 309 311 312 308 310 311 318 310 314 315 322 321 312 299 295 292 300
246 246 248 250 249 250 251 254 262 265 263 256 260 261 261 266 275 283 284 287 293 294 293 293 294 294 296 298 302 302 302 308 309 309 311 310 309 312 315 310 312 324 319 313 309 307 297 292 300
246 250 250 250 251 251 256 250 255 256 257 265 265 265 268 269 270 274 284 291 285 284 291 297 298 298 298 297 299 301 301 303 305 308 308 312 315 308 293 304 317 316 319 308 305 299 306 296 297
246 248 250 249 249 249 253 251 251 259 261 262 269 275 273 275 276 276 275 281 289 289 289 290 289 290 295 298 297 298 299 297 301 303 308 303 294 272 292 296 299 303 316 313 300 290 292 292 299
244 248 251 251 251 248 250 253 252 258 261 265 269 270 273 275 278 283 281 277 276 286 291 292 290 289 289 291 292 294 293 302 310 304 305 301 291 286 294 296 297 300 314 314 296 290 283 288 290
248 250 257 252 252 251 254 254 256 255 262 263 261 266 272 279 282 283 286 287 276 280 281 283 284 289 286 288 288 298 292 300 299 299 297 292 286 289 288 294 299 291 301 289 270 277 276 279 285
244 246 248 250 253 253 252 252 254 257 259 261 266 268 271 275 283 285 288 286 289 284 284 282 279 277 281 283 285 286 287 294 282 287 273 264 275 280 291 287 292 296 297 266 263 261 267 273 281
244 245 248 248 252 255 254 253 256 258 257 261 260 268 280 287 287 291 282 281 280 278 279 282 281 277 280 280 282 285 287 286 278 284 274 268 274 286 280 284 284 282 279 255 262 270 278 282 283
243 245 245 247 249 254 252 254 249 255 258 261 269 272 274 279 288 286 288 292 279 272 271 273 280 280 279 282 287 287 283 284 282 276 279 279 283 278 282 285 283 273 268 262 266 270 273 278 281
243 245 245 247 249 251 253 255 256 257 259 268 274 278 282 285 283 273 278 342 256 281 275 276 285 278 279 290 303 296 283 278 274 272 278 284 283 284 283 282 284 288 279 274 274 274 275 278 281
Height
10962 10966 10969 10970 10973 10975 10977 10979 10980 10981 10982 10985 10984 10988 10989 10989 10989 10989 10985 10986 10986 10985 10983 10982 10981 10980 10978 10975 10971 10968 10964 10959 10954 10948 10945 10940 10935 10928 10922 10915 10910 10906 10902 10898 10894 10891 10889 10888 10888
10962 10964 10967 10968 10970 10970 10974 10976 10977 10979 10981 10984 10981 10985 10986 10986 10985 10986 10985 10983 10982 10982 10980 10979 10978 10977 10975 10973 10969 10966 10961 10956 10950 10946 10941 10937 10933 10927 10920 10914 10909 10906 10902 10898 10893 10887 10883 10882 10881
10960 10963 10964 10966 10965 10972 10973 10974 10975 10977 10978 10981 10982 10983 10984 10985 10984 10983 10982 10981 10980 10979 10977 10977 10976 10974 10973 10971 10968 10964 10958 10954 10948 10944 10940 10936 10931 10928 10922 10918 10914 10909 10905 10901 10896 10890 10883 10878 10876
10959 10962 10964 10966 10966 10971 10973 10972 10973 10975 10975 10977 10979 10980 10982 10983 10982 10981 10979 10978 10977 10976 10976 10975 10974 10972 10971 10969 10966 10963 10958 10952 10946 10941 10939 10936 10931 10928 10924 10920 10915 10910 10905 10900 10897 10892 10887 10881 10876
10956 10960 10962 10963 10965 10968 10970 10972 10971 10973 10972 10974 10976 10978 10978 10979 10979 10978 10977 10977 10976 10975 10974 10973 10971 10969 10968 10966 10964 10962 10957 10949 10943 10938 10936 10933 10930 10927 10924 10920 10915 10911 10906 10901 10896 10892 10890 10885 10880
10952 10958 10962 10961 10962 10965 10966 10969 10970 10971 10972 10973 10974 10976 10976 10977 10977 10976 10975 10975 10975 10974 10972 10970 10969 10968 10966 10964 10962 10960 10954 10948 10941 10936 10934 10931 10927 10925 10923 10919 10915 10910 10906 10901 10898 10895 10891 10888 10886
10951 10956 10957 10959 10959 10960 10964 10964 10967 10969 10970 10972 10972 10972 10974 10975 10975 10975 10973 10973 10972 10971 10969 10968 10967 10965 10964 10961 10959 10957 10952 10946 10940 10934 10930 10928 10926 10923 10920 10918 10915 10911 10908 10903 10899 10897 10893 10891 10887
10949 10954 10953 10957 10959 10955 10958 10961 10965 10967 10969 10969 10970 10971 10971 10972 10973 10973 10970 10971 10969 10968 10966 10965 10964 10962 10960 10958 10956 10954 10950 10946 10940 10934 10928 10925 10923 10923 10920 10918 10914 10911 10905 10902 10900 10899 10894 10891 10888
10946 10951 10950 10952 10955 10955 10956 10959 10961 10964 10965 10967 10968 10969 10969 10970 10971 10971 10970 10968 10967 10966 10964 10963 10961 10959 10957 10955 10954 10952 10949 10944 10939 10933 10927 10923 10921 10921 10920 10919 10914 10909 10906 10902 10900 10898 10895 10891 10889
10944 10946 10949 10950 10953 10952 10954 10957 10959 10960 10961 10963 10964 10966 10967 10968 10969 10970 10969 10966 10965 10964 10961 10960 10959 10956 10954 10953 10951 10949 10947 10944 10939 10934 10928 10924 10922 10921 10920 10919 10915 10912 10907 10903 10901 10898 10894 10890 10889
10943 10944 10946 10947 10949 10949 10952 10955 10956 10956 10958 10959 10961 10963 10965 10966 10966 10967 10967 10966 10962 10961 10959 10958 10956 10954 10951 10950 10949 10947 10945 10942 10939 10935 10930 10926 10923 10921 10919 10916 10914 10910 10907 10904 10901 10899 10893 10891 10888
10941 10942 10944 10944 10946 10948 10949 10951 10954 10952 10955 10956 10958 10960 10961 10962 10963 10964 10964 10964 10962 10958 10958 10957 10954 10952 10949 10948 10947 10946 10944 10940 10938 10935 10931 10926 10923 10919 10916 10914 10913 10909 10907 10902 10899 10897 10894 10890 10889
10939 10941 10942 10943 10944 10946 10946 10946 10949 10949 10952 10954 10956 10958 10959 10960 10960 10960 10960 10960 10959 10958 10955 10954 10952 10949 10947 10945 10944 10943 10941 10939 10936 10932 10929 10927 10923 10919 10916 10915 10911 10908 10905 10903 10899 10896 10892 10888 10886
10936 10939 10940 10941 10942 10943 10943 10943 10946 10947 10951 10953 10955 10956 10956 10957 10956 10956 10956 10955 10955 10954 10953 10952 10950 10947 10945 10945 10943 10939 10936 10933 10931 10930 10928 10926 10923 10920 10915 10912 10911 10906 10902 10898 10895 10891 10888 10885 10881
10932 10934 10936 10938 10939 10940 10940 10941 10945 10948 10948 10949 10951 10953 10953 10952 10951 10950 10950 10950 10949 10950 10948 10949 10947 10945 10943 10941 10940 10937 10936 10934 10931 10929 10925 10922 10919 10918 10915 10912 10908 10903 10899 10895 10892 10888 10884 10881 10877
10926 10930 10931 10933 10936 10936 10936 10938 10946 10944 10943 10944 10946 10947 10947 10946 10945 10945 10945 10946 10944 10946 10945 10943 10943 10941 10939 10938 10935 10933 10931 10929 10928 10925 10923 10918 10915 10912 10909 10907 10904 10899 10896 10891 10886 10882 10878 10876 10873
10919 10922 10925 10929 10930 10930 10931 10935 10939 10940 10939 10939 10940 10941 10942 10941 10940 10940 10941 10942 10941 10941 10940 10939 10938 10937 10936 10933 10930 10928 10926 10924 10922 10919 10917 10914 10910 10907 10903 10900 10897 10893 10888 10884 10880 10876 10873 10870 10867
10913 10916 10919 10922 10925 10925 10927 10929 10933 10933 10933 10936 10938 10933 10935 10936 10936 10935 10937 10938 10938 10937 10936 10935 10933 10934 10931 10928 10925 10923 10921 10919 10917 10914 10910 10908 10904 10902 10897 10893 10889 10886 10882 10879 10875 10871 10867 10864 10860
10905 10910 10912 10915 10917 10919 10921 10924 10927 10929 10928 10933 10924 10924 10927 10930 10932 10931 10932 10933 10934 10931 10933 10931 10930 10929 10926 10923 10920 10918 10917 10915 10912 10910 10905 10902 10899 10895 10893 10886 10881 10879 10876 10874 10872 10867 10863 10858 10854
10897 10902 10906 10907 10907 10913 10915 10916 10921 10922 10923 10925 10920 10921 10921 10923 10925 10926 10927 10928 10928 10927 10926 10926 10925 10923 10921 10918 10916 10914 10912 10909 10907 10904 10901 10899 10893 10890 10888 10882 10879 10875 10870 10867 10863 10860 10856 10852 10846
10891 10895 10897 10897 10902 10906 10911 10909 10909 10912 10911 10914 10916 10919 10920 10919 10917 10918 10923 10922 10922 10921 10920 10919 10919 10917 10915 10913 10910 10907 10906 10904 10902 10900 10898 10894 10889 10884 10881 10879 10873 10868 10863 10859 10855 10852 10848 10844 10839
10881 10883 10887 10889 10894 10901 10902 10905 10903 10900 10902 10909 10905 10910 10913 10916 10916 10913 10914 10918 10918 10914 10914 10914 10913 10913 10910 10906 10903 10901 10900 10899 10896 10895 10891 10885 10880 10875 10869 10867 10865 10861 10856 10850 10846 10842 10839 10835 10830
10872 10874 10880 10883 10886 10891 10892 10897 10892 10891 10893 10890 10898 10902 10904 10908 10912 10914 10908 10908 10912 10912 10908 10907 10907 10905 10904 10900 10897 10895 10893 10891 10889 10887 10883 10879 10874 10870 10860 10858 10859 10856 10848 10841 10838 10833 10830 10824 10820
10863 10867 10871 10874 10874 10884 10879 10883 10885 10879 10886 10887 10886 10890 10896 10899 10902 10909 10911 10905 10895 10899 10901 10900 10898 10895 10894 10893 10889 10887 10886 10884 10881 10877 10876 10874 10873 10858 10856 10849 10851 10848 10843 10835 10830 10826 10820 10815 10809
10855 10859 10860 10865 10868 10871 10866 10875 10876 10872 10876 10878 10880 10880 10885 10889 10892 10893 10898 10901 10898 10894 10892 10887 10885 10885 10884 10879 10877 10879 10876 10879 10875 10867 10866 10863 10858 10853 10848 10845 10841 10839 10833 10830 10812 10816 10808 10800 10796
10848 10850 10853 10856 10858 10862 10860 10866 10860 10864 10866 10864 10871 10875 10878 10881 10882 10885 10886 10890 10893 10888 10888 10881 10877 10873 10868 10868 10865 10869 10869 10870 10868 10864 10859 10852 10847 10844 10843 10839 10835 10829 10823 10822 10815 10806 10796 10789 10784
10836 10839 10840 10845 10848 10852 10850 10852 10846 10857 10851 10851 10858 10868 10871 10876 10879 10884 10879 10875 10876 10879 10878 10879 10874 10864 10858 10858 10854 10858 10858 10857 10852 10848 10848 10840 10835 10836 10833 10826 10822 10820 10812 10807 10802 10791 10784 10776 10768
10824 10825 10832 10836 10838 10841 10841 10830 10841 10839 10839 10846 10840 10863 10865 10870 10874 10873 10862 10855 10850 10855 10857 10858 10861 10853 10849 10849 10851 10849 10846 10842 10837 10835 10830 10824 10821 10823 10822 10815 10813 10810 10808 10797 10786 10780 10772 10763 10754
10812 10816 10821 10823 10830 10832 10830 10814 10818 10831 10829 10832 10840 10859 10860 10862 10866 10855 10851 10845 10821 10824 10833 10840 10850 10845 10840 10841 10844 10842 10836 10829 10824 10820 10815 10809 10809 10807 10804 10797 10797 10796 10785 10781 10773 10765 10754 10746 10739
10798 10803 10813 10814 10817 10820 10815 10799 10824 10815 10822 10828 10840 10843 10847 10854 10849 10838 10835 10814 10762 10804 10813 10822 10832 10832 10830 10835 10834 10813 10815 10816 10810 10802 10801 10798 10792 10790 10784 10781 10778 10772 10766 10761 10756 10748 10738 10733 10725